Back to catalog

OPS 5712

P/L 160

AliveMilitaryLEO
NORAD 2826·PAYLOAD·🇺🇸 United States

Launched May 31, 1967 from Vandenberg Space Force Base

Loading…

Next Passes (next 24 hours)

TLE

FreshSource: Space-Track

Epoch: Sep 14, 2026, 13:43 UTC

1 02826U 67053A   26257.57168384  .00005644  00000-0  77800-3 0  9997
2 02826  69.9167 179.0276 0004066 271.7401  88.3282 14.78714414 79444

Track OPS 5712 in real time with AllMySat

Download on the App Store